Terminal Aerodrome Forecast
Issued by NWS

Home | Current Version | Previous Version | Graphics & Text | Print | Product List | Glossary On
Versions: 1 2 3 4 5 6 7 8 9 10 11 12 13 14 15 16 17 18 19 20
000
FTUS43 KABR 271300 AAA
TAFPIR
TAF AMD
KPIR 271356Z 2714/2812 12012KT P6SM OVC040
     FM280000 12008KT P6SM OVC050
     FM280400 VRB05KT P6SM BKN250=

USA.gov is the U.S. government's official web portal to all federal, state and local government web resources and services.